Regional Weather Roundup
Issued by NWS

Home | Current Version | Previous Version | Graphics & Text | Print | Product List | Glossary On
Versions: 1 2 3 4 5 6 7 8 9 10 11 12 13 14 15 16 17 18 19 20 21 22 23 24 25 26 27 28 29 30 31 32 33 34 35 36 37 38 39 40 41 42 43 44 45 46 47 48 49 50
000
ASUS45 KABQ 201401
RWRNM
WEATHER ROUNDUP FOR NEW MEXICO
NATIONAL WEATHER SERVICE ALBUQUERQUE NM
800 AM MDT SAT SEP 20 2014

NOTE: "FAIR" MEANS FEW OR NO CLOUDS BELOW 12,000 FEET AGL WITH NO
       SIGNIFICANT WEATHER OR OBSTRUCTIONS TO VISION.

      THIS PRODUCT IS RELEASED AS TWO VERSIONS.  ONE VERSION NEAR
      THE TOP OF THE HOUR CONTAINING PRELIMINARY DATA FROM ALBUQUERQUE
      AND OTHER STATIONS.  A FINAL VERSION WITH ADDITIONAL DATA IS
      ISSUED ABOUT 10 MINUTES AFTER THE HOUR.

NMZ501-503-504-510>518-201500-
NORTHWEST PLATEAU/NORTHCENTRAL MOUNTAINS

CITY           SKY/WX    TMP DP  RH WIND       PRES   REMARKS
FARMINGTON     SUNNY     59  44  57 NE5       30.16R
LOS ALAMOS     SUNNY     58  53  84 NW6       30.29R
SANTA FE       SUNNY     58  53  84 CALM      30.23R
TAOS           MOSUNNY   52  45  76 N3        30.31R
ANGEL FIRE     FOG       42  40  95 CALM      30.40R VSB<1/4

$$
NMZ402-403-502-505>509-201500-
WESTCENTRAL MOUNTAINS/SOUTHWEST MOUNTAINS

CITY           SKY/WX    TMP DP  RH WIND       PRES   REMARKS
GALLUP         SUNNY     50  36  58 CALM      30.23R
GRANTS         SUNNY     54  41  62 N3        30.26R
SILVER CITY    SUNNY     64  61  88 NW6       30.16R

$$
NMZ407-409-411-412-201500-
SOUTHERN DESERTS

CITY           SKY/WX    TMP DP  RH WIND       PRES   REMARKS
LORDSBURG      FAIR      64  63  94 MISG      30.08R
DEMING         SUNNY     65  62  90 CALM      30.08R
LAS CRUCES     SUNNY     69  64  84 CALM      30.09R
HOLLOMAN AFB   MOSUNNY   66  65  97 CALM      30.05R
ALAMOGORDO     MOSUNNY   66  64  94 CALM      30.07R
T OR C         SUNNY     66  61  84 N5        30.11R

$$
NMZ519>523-201500-
CENTRAL VALLEYS/CENTRAL HIGHLANDS

CITY           SKY/WX    TMP DP  RH WIND       PRES   REMARKS
ALBUQUERQUE    SUNNY     64  56  75 N10       30.17R
DOUBLE EAGLE   SUNNY     59  55  88 CALM      30.21R
CLINES CORNERS FOG       54  53  97 W8        30.26R VSB 1/4
BELEN          FAIR      62  60  93 CALM      30.16R
SOCORRO        FAIR      64  61  91 CALM      30.13S

$$
NMZ524>526-539-540-201500-
SOUTHCENTRAL MOUNTAINS

CITY           SKY/WX    TMP DP  RH WIND       PRES   REMARKS
RUIDOSO        NOT AVBL

$$
NMZ527>531-201500-
NORTHEAST HIGHLANDS/NORTHEAST PLAINS

CITY           SKY/WX    TMP DP  RH WIND       PRES   REMARKS
LAS VEGAS      FOG       52  52 100 N5        30.26R VSB 1/4
RATON          SUNNY     61  56  83 CALM      30.21R
CLAYTON        SUNNY     65  59  81 W10       30.11R

$$
NMZ532>537-201500-
EASTCENTRAL PLAINS

CITY           SKY/WX    TMP DP  RH WIND       PRES   REMARKS
TUCUMCARI      PTSUNNY   66  60  81 W6        30.08S
CANNON AFB     NOT AVBL
CLOVIS AIRPORT   N/A     64  61  88 N7        30.13R

$$
NMZ028-029-538-201500-
SOUTHEAST PLAINS

CITY           SKY/WX    TMP DP  RH WIND       PRES   REMARKS
ROSWELL        CLOUDY    69  66  90 N7        30.06R
CARLSBAD       CLOUDY    70  32  24 NW5       30.03R
HOBBS          PTSUNNY   68  68 100 CALM      30.06R FOG


$$



USA.gov is the U.S. government's official web portal to all federal, state and local government web resources and services.